EHI
19 23 29 33 28 19 12 11 11 9 5 3 2 1 0 0 0 0 0 0 0 0 0 0 0 0 0 0 0 0 0 0 0 0 0 0 0 0 0 0 0 0 0
19 23 29 33 29 22 17 14 12 9 6 3 1 0 0 0 0 0 0 0 0 0 0 0 0 0 0 0 0 0 0 0 0 0 0 0 0 0 0 0 0 0 0
18 22 29 33 31 29 24 19 14 10 7 5 3 2 1 0 0 0 0 0 0 0 0 0 0 0 0 0 0 0 0 0 0 0 0 0 0 0 0 0 0 0 0
16 20 29 33 33 33 30 22 16 13 10 7 6 5 3 1 0 0 0 0 0 0 0 0 0 0 0 0 0 0 0 0 0 0 0 0 0 0 0 0 0 0 0
16 20 26 30 32 33 30 23 17 16 13 9 7 6 4 2 1 0 0 0 0 0 0 0 0 0 0 0 0 0 0 0 0 0 0 0 0 0 0 0 0 0 0
17 20 23 26 29 31 28 22 18 17 14 10 7 5 4 3 1 1 0 0 0 0 0 0 0 0 0 0 0 0 0 0 0 0 0 0 0 0 0 0 0 0 0
15 18 21 24 28 28 25 21 19 18 15 10 7 5 4 4 3 2 1 0 0 0 0 0 0 0 0 0 0 0 0 0 0 0 0 0 0 0 0 0 0 0 0
12 14 18 22 25 25 23 20 18 17 15 11 7 5 4 5 5 4 2 1 1 0 0 0 0 0 0 0 0 0 0 0 0 0 0 0 0 0 0 0 0 0 0
9 11 14 17 20 21 20 19 17 15 14 11 7 5 5 6 6 4 3 2 1 1 0 0 0 0 0 0 0 0 0 0 0 0 0 0 0 0 0 0 0 0 0
6 7 10 12 14 17 19 18 15 12 11 9 7 6 6 6 6 5 3 2 1 1 0 0 0 0 0 0 0 0 0 0 0 0 0 0 0 0 0 0 0 0 0
2 4 6 9 12 15 18 18 15 12 9 8 7 7 6 6 5 5 4 2 1 0 0 0 0 0 0 0 0 0 0 0 0 0 0 0 0 0 0 0 0 0 0
1 1 3 7 11 14 16 18 16 14 11 9 8 6 6 6 5 4 3 3 1 1 0 0 0 0 0 0 0 0 0 0 0 0 0 0 0 0 0 0 0 0 0
1 1 2 6 9 11 13 16 16 14 12 10 7 6 6 6 6 4 3 3 2 1 0 0 0 0 0 0 0 0 0 0 0 0 0 0 0 0 0 0 0 0 0
1 2 3 6 8 9 9 12 13 12 10 9 7 6 6 6 6 5 4 3 3 1 0 0 0 0 0 0 0 0 0 0 0 0 0 0 0 0 0 0 0 0 0
1 2 3 5 8 9 9 10 10 9 8 7 6 5 5 6 5 4 3 3 2 1 0 0 0 0 0 0 0 0 0 0 0 0 0 0 0 0 0 0 0 0 0
1 2 2 4 7 9 10 10 9 7 6 5 4 4 4 4 4 4 3 3 2 1 0 0 0 0 0 0 0 0 0 0 0 0 0 0 0 0 0 0 0 0 0
0 1 1 2 4 7 10 11 8 6 4 4 3 3 3 3 4 4 4 3 2 1 0 0 0 0 0 0 0 0 0 0 0 0 0 0 0 0 0 0 0 0 0
0 0 0 1 1 4 8 9 7 4 3 3 3 3 3 4 4 4 3 3 2 1 0 0 0 0 0 0 0 0 0 0 0 0 0 0 0 0 0 0 0 0 0
0 0 0 0 0 2 5 7 6 4 3 3 3 3 4 4 4 3 2 1 1 0 0 0 0 0 0 0 0 0 0 0 0 0 0 0 0 0 0 0 0 0 0
0 1 1 0 1 1 3 5 5 4 3 3 3 3 4 4 3 1 1 0 0 0 0 0 0 0 0 0 0 0 0 0 0 0 0 0 0 0 0 0 0 0 0
1 1 1 1 2 3 4 5 4 3 3 3 3 3 2 2 1 0 0 0 0 0 0 0 0 0 0 0 0 0 0 0 0 0 0 0 0 0 0 0 0 0 0
0 1 1 2 2 2 3 4 4 3 3 3 2 1 1 0 0 0 0 0 0 0 0 0 0 0 0 0 0 0 0 0 0 0 0 0 0 0 0 0 0 0 0
0 0 0 1 1 1 1 2 3 3 3 1 1 0 0 0 0 0 0 0 0 0 0 0 0 0 0 0 0 0 0 0 0 0 0 0 0 0 0 0 0 0 0
0 0 0 0 0 0 1 1 2 3 2 1 0 0 0 0 0 0 0 0 0 0 0 0 0 0 0 0 0 0 0 0 0 0 0 0 0 0 0 0 0 0 0
0 0 0 0 1 1 1 1 1 2 1 0 0 0 0 0 0 0 0 0 0 0 0 0 0 0 0 0 0 0 0 0 0 0 0 0 0 0 0 0 0 0 0
0 0 0 1 2 2 1 1 1 1 0 0 0 0 0 0 0 0 0 0 0 0 0 0 0 0 0 0 0 0 0 0 0 0 0 0 0 0 0 0 0 0 0
Wind_Speed
9 8 10 11 10 9 10 10 9 9 8 5 5 4 4 3 3 3 4 5 5 5 4 3 3 3 3 3 4 3 3 2 2 2 2 2 2 2 1 1 0 0 1
8 10 11 11 12 12 11 11 11 10 9 7 5 4 3 3 2 2 3 4 5 5 5 5 4 4 3 4 4 3 3 2 1 2 2 1 2 2 1 1 0 0 0
13 12 13 13 12 13 13 12 11 10 9 7 5 4 3 2 2 2 2 3 4 5 4 5 4 4 3 3 4 4 4 3 1 1 3 3 2 1 1 1 1 0 0
10 11 13 13 14 13 11 10 10 9 9 9 8 8 6 5 5 4 3 3 3 4 4 5 5 4 3 4 3 3 3 4 3 1 1 1 3 2 0 1 1 1 0
11 12 13 13 12 11 11 10 9 9 9 9 10 9 6 4 3 3 5 4 3 3 4 5 4 4 3 4 4 3 3 3 3 3 2 2 1 1 2 1 1 1 1
11 11 10 9 8 9 10 10 11 10 9 10 9 9 8 7 7 6 5 4 3 2 4 4 4 4 3 4 4 4 4 3 3 3 2 3 3 2 2 2 1 1 1
10 10 11 11 11 11 11 11 12 10 10 10 9 9 9 9 9 7 7 6 4 3 4 4 4 4 4 4 4 4 3 4 4 3 2 2 2 2 3 3 2 1 1
8 10 11 12 12 12 12 12 12 10 10 10 9 8 8 6 5 6 6 6 5 5 5 5 5 5 5 4 4 3 3 3 3 3 3 2 2 2 3 3 3 2 0
8 9 10 10 11 12 12 12 12 10 11 10 9 8 8 7 6 6 6 5 4 4 6 6 5 5 5 5 4 3 3 3 2 3 3 2 1 2 2 2 3 4 2
6 8 9 10 10 10 10 10 10 10 9 10 9 8 8 7 7 6 7 6 6 5 6 6 5 5 5 5 4 3 3 4 3 2 3 2 1 2 2 2 2 2 3
6 6 7 8 9 9 9 9 10 9 9 9 8 8 8 7 7 6 7 6 6 6 7 6 6 6 5 5 4 4 4 4 3 3 3 3 2 2 2 2 2 2 2
5 5 6 7 8 9 10 10 10 10 10 9 8 8 8 8 7 7 7 6 7 7 7 6 6 6 6 5 6 6 5 5 4 4 3 3 3 3 2 2 2 2 2
5 5 6 7 7 8 9 9 10 10 9 9 9 8 8 8 8 7 7 6 7 7 7 7 7 7 6 6 6 6 6 5 5 5 5 4 4 3 3 3 3 2 2
5 6 6 6 6 7 8 8 9 9 9 9 9 9 9 8 8 7 7 7 7 7 7 7 7 7 7 6 6 6 5 5 4 4 5 5 5 5 4 3 3 3 2
5 6 7 7 7 7 7 7 8 8 9 9 9 9 8 7 7 7 7 6 7 7 6 6 6 6 6 6 7 6 6 5 5 4 4 5 6 7 6 4 4 4 3
5 5 6 7 8 8 8 8 8 8 8 8 8 7 8 8 7 7 7 6 6 6 6 6 6 7 6 8 10 8 6 6 6 5 4 4 5 7 8 8 7 7 5
4 6 6 6 7 8 8 9 8 7 8 7 7 8 8 8 8 8 7 7 7 6 6 6 6 7 7 9 10 11 6 6 6 5 5 4 4 5 4 5 6 7 7
3 5 5 5 5 6 7 7 8 8 8 8 7 8 8 8 7 7 8 7 6 6 6 6 6 6 7 10 10 10 7 5 5 6 6 5 4 4 5 4 3 4 4
2 3 4 5 5 6 7 8 8 8 8 8 8 8 8 8 8 8 8 6 6 6 6 5 6 6 6 9 10 9 5 5 6 5 5 6 5 6 6 4 4 4 4
1 2 3 4 5 5 7 8 8 8 8 8 8 8 8 8 8 8 7 5 5 6 6 5 6 7 6 7 10 10 5 5 4 4 4 6 6 6 6 5 5 5 5
2 3 4 4 3 5 7 7 7 8 7 6 6 7 7 7 7 6 5 5 6 5 5 5 5 6 6 7 9 11 6 6 5 4 4 4 7 7 7 7 6 8 5
4 4 4 4 3 4 6 6 6 5 5 6 6 6 6 6 6 6 5 6 6 6 5 5 4 4 5 6 8 11 10 8 6 5 4 4 6 7 7 6 6 7 5
4 4 4 4 3 3 5 5 4 4 5 6 6 5 5 5 5 6 6 5 5 5 5 4 5 4 3 4 7 9 10 10 6 4 5 5 6 6 5 6 6 4 3
3 3 4 4 3 2 2 2 3 5 6 6 5 5 5 5 4 4 4 5 5 5 5 5 5 4 3 4 4 4 5 7 6 4 3 4 4 3 3 2 2 3 3
3 3 3 3 3 3 2 2 2 4 5 5 4 5 5 5 4 3 2 3 3 4 5 4 4 4 5 5 6 5 4 5 5 4 2 1 2 2 2 1 1 1 2
3 3 4 4 3 4 3 3 2 3 5 4 4 3 3 4 4 4 3 4 3 3 3 3 3 2 3 3 5 7 6 6 7 5 2 2 3 3 2 2 2 2 2
Wind_Direction
188 174 173 172 171 172 177 178 174 169 163 162 164 164 174 173 172 178 174 167 162 159 155 155 154 153 152 153 139 120 111 98 104 89 58 33 38 53 38 30 43 240 227
173 177 175 177 180 180 182 179 179 174 175 174 167 161 152 156 162 163 161 166 165 165 168 161 161 157 145 144 147 137 126 111 116 121 105 42 6 10 24 12 267 269 110
184 183 182 184 184 185 186 185 181 175 174 163 143 127 108 102 132 154 164 170 167 167 164 163 159 158 157 164 166 156 146 143 126 124 143 149 200 297 349 358 19 23 109
191 186 186 187 188 188 183 180 176 173 171 164 164 166 170 175 182 170 163 156 163 165 161 159 160 158 159 164 171 158 147 144 152 128 90 124 149 151 128 342 354 360 45
194 191 192 191 187 180 177 175 171 173 171 172 174 174 173 166 150 145 151 154 159 165 166 159 156 161 163 164 160 148 146 149 157 158 146 120 91 109 141 191 318 339 323
196 191 186 177 176 172 172 170 174 178 175 174 175 176 172 163 158 163 166 163 157 161 168 161 161 164 163 164 162 154 153 156 153 154 157 157 158 168 155 163 202 265 298
188 183 179 178 177 176 175 174 177 180 178 176 179 182 178 172 174 173 174 169 168 175 182 171 167 167 168 165 156 155 160 166 163 167 172 172 166 151 147 144 154 194 302
183 184 184 182 180 179 177 176 180 181 178 179 183 182 175 175 179 175 174 178 180 181 174 170 169 167 165 163 157 152 161 161 168 176 171 166 176 166 165 158 149 142 315
184 183 179 179 178 179 182 181 182 181 181 181 177 178 178 178 177 173 173 175 173 172 168 167 167 168 163 158 153 154 158 153 164 169 169 168 175 176 179 166 159 153 173
185 184 179 178 178 181 180 173 177 181 180 178 181 181 181 179 172 169 177 178 176 169 165 169 171 168 164 160 157 153 157 153 161 161 154 155 159 161 160 162 158 156 160
188 189 182 175 171 169 170 172 172 173 178 179 178 173 176 172 167 175 183 179 175 172 173 173 174 173 171 166 162 163 164 164 163 158 161 168 162 156 153 148 149 153 152
180 176 170 165 167 171 171 175 175 178 179 174 172 172 170 168 173 181 181 176 177 179 177 172 175 179 178 173 173 176 175 175 175 175 167 176 169 161 160 163 166 167 170
162 157 157 164 172 174 173 176 176 177 171 170 171 170 171 174 181 182 177 177 180 178 175 173 181 184 182 182 184 182 179 184 186 184 184 185 174 179 179 177 176 176 175
170 164 164 167 168 170 172 174 174 171 168 169 172 176 179 180 182 177 175 180 180 178 180 183 186 185 183 185 184 182 183 187 191 193 196 196 195 195 188 186 186 177 170
180 181 177 171 167 166 169 170 167 166 166 168 175 181 176 170 170 171 177 179 180 185 183 180 183 183 183 191 187 187 189 189 192 196 202 207 207 204 197 194 190 179 177
195 191 183 174 173 174 174 169 167 166 162 170 178 172 166 169 174 176 177 177 181 179 177 183 186 189 198 196 191 187 188 188 192 201 211 220 219 218 217 216 203 189 185
200 193 189 185 181 176 172 171 169 161 165 174 175 170 170 175 178 177 177 182 181 177 182 188 188 195 202 196 195 194 186 192 197 201 206 216 217 211 214 223 222 220 221
199 194 190 186 178 168 164 163 159 164 170 176 177 173 173 178 176 176 182 183 176 179 186 191 193 197 208 201 200 197 193 199 207 208 207 211 217 211 200 205 221 239 241
197 188 187 179 163 163 161 156 160 164 171 179 182 179 176 177 178 184 186 181 176 183 187 188 190 198 214 206 202 191 188 204 215 214 210 209 217 220 203 200 224 251 262
104 134 137 133 149 164 156 155 163 168 181 185 183 177 176 178 183 187 184 177 178 188 187 193 196 200 212 210 202 190 192 205 213 214 213 213 217 222 205 204 215 241 255
70 107 113 124 150 156 154 161 167 181 183 171 166 168 173 178 180 179 177 172 176 178 187 197 204 208 214 211 205 195 195 204 208 214 218 220 219 223 218 210 218 235 244
60 84 99 101 112 139 151 162 178 175 155 155 160 168 172 178 178 174 177 175 175 182 193 200 213 218 215 211 211 203 203 200 204 216 217 218 216 222 224 222 233 240 233
54 72 93 97 91 121 146 164 173 147 146 153 163 166 166 174 171 176 178 175 179 189 199 203 216 220 210 208 211 208 206 205 208 218 211 214 218 219 225 228 230 221 209
48 66 90 99 96 102 123 144 143 147 147 160 169 167 167 169 168 171 176 179 186 193 200 205 213 214 207 210 205 207 208 208 216 228 218 210 208 204 212 214 210 203 203
42 64 86 100 96 94 91 98 132 150 156 162 168 170 171 169 164 157 156 180 187 196 196 206 204 203 217 224 202 191 197 194 192 177 174 178 181 191 200 207 217 210 201
43 54 63 74 82 88 80 69 98 139 146 150 158 163 163 161 155 148 118 63 88 106 142 161 171 189 199 182 176 184 187 180 163 153 172 192 198 205 215 223 230 226 229